W5UE Weather Reports


Display with metric or nautical units.
time (UTC)temp
F
wind
direction
speed
MPH
gust
MPH
rain 1hr
in
rain 24hr
in
rain mn
in
humidity
%
barometer
mb
20181114012045 40 360 4.0 13.0 0.00 0.22 0.14 100 1022.8
20181114011601 40 19 0.0 10.0 0.00 0.22 0.14 100 1022.9
20181114011044 40 10 4.0 10.0 0.00 0.22 0.14 100 1022.8
20181114010543 40 5 2.0 11.0 0.00 0.22 0.14 100 1023.0
20181114010205 40 14 5.0 13.0 0.00 0.22 0.14 100 1022.9
20181114005542 40 10 6.0 13.0 0.00 0.22 0.14 100 1022.8
20181114005042 40 360 3.0 9.0 0.00 0.22 0.14 100 1022.7
20181114004656 40 5 5.0 9.0 0.00 0.22 0.14 100 1022.9
20181114004041 40 355 6.0 9.0 0.00 0.22 0.14 100 1022.8
20181114003540 40 5 3.0 10.0 0.00 0.22 0.14 100 1022.6
20181114003157 40 5 5.0 11.0 0.00 0.22 0.14 100 1022.5
20181114002539 40 5 0.0 8.0 0.00 0.22 0.14 100 1022.6
20181114002040 40 337 0.0 7.0 0.00 0.22 0.14 100 1022.6
20181114001620 40 13 0.0 10.0 0.00 0.22 0.14 100 1022.6
20181114001038 40 360 0.0 10.0 0.00 0.22 0.14 100 1022.5
20181114000538 40 9 2.0 9.0 0.00 0.22 0.14 100 1022.4
20181114000153 40 348 3.0 9.0 0.00 0.22 0.14 100 1022.4
20181113235537 40 5 1.0 7.0 0.00 0.22 0.14 100 1022.3
20181113235036 40 360 1.0 12.0 0.00 0.22 0.14 100 1022.2
20181113234621 40 360 4.0 12.0 0.00 0.22 0.14 100 1022.2
20181113234038 40 17 5.0 10.0 0.00 0.22 0.14 100 1022.0
20181113233538 40 22 3.0 10.0 0.00 0.22 0.14 100 1022.2
20181113233119 40 355 5.0 10.0 0.00 0.22 0.14 100 1022.4
20181113232535 40 17 3.0 10.0 0.00 0.22 0.14 100 1022.4
20181113232034 40 13 2.0 9.0 0.00 0.22 0.14 100 1022.4
20181113231635 40 19 0.0 9.0 0.00 0.22 0.14 100 1022.4
20181113231034 40 360 0.0 7.0 0.00 0.22 0.14 100 1022.2
20181113230534 40 351 3.0 10.0 0.00 0.22 0.14 100 1022.3
20181113230104 40 5 1.0 11.0 0.00 0.22 0.14 100 1022.2
20181113225534 40 31 4.0 12.0 0.00 0.22 0.14 100 1022.2
20181113225033 40 327 4.0 10.0 0.00 0.22 0.14 100 1022.1
20181113224643 40 13 4.0 9.0 0.00 0.22 0.14 100 1022.2
20181113224034 40 9 1.0 11.0 0.00 0.22 0.14 100 1022.1
20181113223533 40 342 6.0 11.0 0.00 0.22 0.14 100 1022.0
20181113223104 41 17 1.0 9.0 0.00 0.22 0.14 100 1022.0
20181113222533 41 5 0.0 10.0 0.00 0.22 0.14 100 1022.0
20181113222031 40 360 2.0 10.0 0.00 0.22 0.14 100 1021.9
20181113221626 40 355 2.0 10.0 0.00 0.22 0.14 100 1021.9
20181113221031 40 5 4.0 10.0 0.00 0.22 0.14 100 1021.8
20181113220531 40 355 4.0 10.0 0.00 0.22 0.14 100 1022.0
20181113220058 41 10 3.0 12.0 0.00 0.22 0.14 100 1022.2
20181113215533 41 21 4.0 12.0 0.00 0.22 0.14 100 1022.1
20181113215029 41 13 1.0 7.0 0.00 0.22 0.14 100 1022.3
20181113214601 41 17 1.0 9.0 0.00 0.22 0.14 100 1022.1
20181113214031 41 5 2.0 9.0 0.00 0.22 0.14 100 1022.3
20181113213529 41 350 0.0 8.0 0.00 0.22 0.14 100 1022.0
20181113213031 41 350 0.0 11.0 0.00 0.22 0.14 100 1021.6
20181113212529 41 325 4.0 11.0 0.00 0.22 0.14 100 1021.4
20181113212028 41 5 4.0 9.0 0.00 0.22 0.14 100 1021.1
20181113211540 41 5 0.0 11.0 0.00 0.22 0.14 100 1021.0
20181113211028 41 5 5.0 11.0 0.00 0.22 0.14 100 1021.0
20181113210528 41 21 3.0 11.0 0.00 0.22 0.14 100 1021.1
20181113210119 41 249 5.0 11.0 0.00 0.24 0.14 100 1020.8
20181113205527 41 5 3.0 11.0 0.00 0.24 0.14 100 1020.7
20181113205026 41 355 5.0 16.0 0.00 0.24 0.14 100 1020.7
20181113204616 41 14 7.0 16.0 0.00 0.24 0.14 100 1020.9
20181113204025 41 342 6.0 10.0 0.00 0.24 0.14 100 1020.9
20181113203526 41 347 4.0 12.0 0.00 0.24 0.14 100 1021.0
20181113203029 41 11 6.0 12.0 0.00 0.24 0.14 100 1021.0
20181113202523 41 336 2.0 10.0 0.00 0.24 0.14 100 1021.1
20181113202023 42 346 3.0 10.0 0.00 0.24 0.14 100 1021.1
20181113201546 42 13 0.0 12.0 0.00 0.24 0.14 100 1021.1
20181113201021 42 11 5.0 12.0 0.00 0.24 0.14 100 1021.3
20181113200521 42 360 3.0 10.0 0.00 0.24 0.14 100 1021.2
20181113200055 42 302 0.0 9.0 0.00 0.36 0.14 100 1021.4
20181113195521 42 340 1.0 10.0 0.00 0.36 0.14 100 1021.3
20181113195019 42 360 2.0 11.0 0.00 0.36 0.14 100 1021.1
20181113194535 42 335 6.0 11.0 0.00 0.36 0.14 100 1021.1
20181113194019 42 345 4.0 12.0 0.00 0.36 0.14 100 1021.3
20181113193517 42 280 6.0 12.0 0.00 0.36 0.14 100 1021.2
20181113193045 42 360 3.0 12.0 0.00 0.36 0.14 100 1021.4
20181113192515 42 27 2.0 12.0 0.00 0.36 0.14 100 1021.4
20181113192016 42 5 3.0 12.0 0.00 0.36 0.14 100 1021.3
20181113191545 42 9 3.0 11.0 0.00 0.36 0.14 100 1021.1
20181113191014 42 360 1.0 9.0 0.00 0.36 0.14 100 1020.9
20181113190513 42 342 3.0 8.0 0.00 0.36 0.14 100 1020.8
20181113190031 42 318 1.0 9.0 0.00 0.70 0.14 100 1021.1
20181113185511 42 23 4.0 10.0 0.00 0.70 0.14 100 1020.9
20181113185011 42 36 2.0 10.0 0.00 0.70 0.14 100 1020.8
20181113184515 42 12 2.0 10.0 0.00 0.70 0.14 100 1020.8
20181113184011 42 11 5.0 12.0 0.00 0.70 0.14 100 1020.6
20181113183510 42 355 4.0 12.0 0.00 0.70 0.14 100 1020.6
20181113183011 42 34 1.0 12.0 0.00 0.70 0.14 100 1020.8
20181113182508 42 27 0.0 9.0 0.00 0.70 0.14 100 1021.0
20181113182008 42 19 2.0 10.0 0.00 0.70 0.14 100 1021.1
20181113181512 42 348 4.0 12.0 0.00 0.70 0.14 100 1021.1
20181113181006 42 9 4.0 10.0 0.00 0.70 0.14 100 1020.8
20181113180506 43 31 4.0 10.0 0.00 0.70 0.14 100 1021.2
20181113180009 43 31 0.0 6.0 0.00 0.70 0.14 100 1021.1
20181113175506 43 351 0.0 12.0 0.00 0.70 0.14 100 1021.0
20181113175006 43 15 3.0 12.0 0.00 0.70 0.14 100 1021.1
20181113174512 43 351 0.0 11.0 0.00 0.70 0.14 100 1021.6
20181113174005 43 21 0.0 11.0 0.00 0.70 0.14 100 1021.8
20181113173507 43 355 0.0 7.0 0.00 0.70 0.14 100 1021.8
20181113173012 43 12 0.0 8.0 0.00 0.70 0.14 100 1021.7
20181113172504 43 5 1.0 8.0 0.01 0.70 0.14 100 1021.7
20181113172004 43 15 0.0 6.0 0.02 0.70 0.14 100 1021.4
20181113171506 43 5 1.0 8.0 0.02 0.70 0.14 100 1021.5
20181113171004 43 15 1.0 10.0 0.02 0.70 0.14 100 1021.4
20181113170503 43 33 1.0 10.0 0.02 0.70 0.14 100 1021.4
20181113170004 43 360 0.0 0.0 0.03 0.70 0.14 100 1021.4
20181113165502 43 25 0.0 0.0 0.03 0.70 0.14 100 1021.3
20181113165002 43 329 0.0 0.0 0.03 0.70 0.14 100 1021.5
20181113164509 43 16 0.0 8.0 0.03 0.70 0.14 100 1021.8
20181113164002 43 15 0.0 8.0 0.03 0.70 0.14 100 1022.1
20181113163502 43 37 0.0 8.0 0.03 0.70 0.14 100 1022.1
20181113163010 43 15 0.0 7.0 0.03 0.70 0.14 100 1022.3
20181113162502 43 118 1.0 10.0 0.02 0.69 0.13 100 1021.8
20181113162002 43 5 2.0 10.0 0.02 0.68 0.12 100 1020.6
20181113161502 43 9 0.0 12.0 0.02 0.68 0.12 100 1021.2
20181113161002 43 355 4.0 13.0 0.02 0.68 0.12 100 1021.1
20181113160501 43 355 0.0 7.0 0.02 0.68 0.12 100 1021.8
20181113160002 43 5 0.0 7.0 0.01 0.67 0.11 100 1022.0
20181113155504 43 281 0.0 5.0 0.01 0.67 0.11 100 1022.1
20181113155100 43 300 0.0 5.0 0.01 0.67 0.11 100 1022.3
20181113154656 43 41 0.0 8.0 0.01 0.67 0.11 100 1021.1
20181113154059 43 5 1.0 8.0 0.01 0.67 0.11 100 1020.6
20181113153559 43 5 0.0 6.0 0.01 0.67 0.11 100 1020.1
20181113153241 43 360 1.0 8.0 0.01 0.67 0.11 100 1020.5
20181113152557 43 24 3.0 8.0 0.01 0.67 0.11 100 1020.7
20181113152100 43 355 1.0 5.0 0.01 0.67 0.11 100 1020.7
20181113151756 43 25 0.0 0.0 0.00 0.66 0.10 100 1020.8
20181113151057 43 15 0.0 0.0 0.00 0.66 0.10 100 1020.6
20181113150559 43 5 0.0 8.0 0.00 0.66 0.10 100 1020.2
20181113150203 43 360 4.0 8.0 0.00 0.66 0.10 100 1020.2
20181113145557 43 313 3.0 9.0 0.00 0.66 0.10 100 1020.3
20181113145056 43 16 3.0 12.0 0.00 0.66 0.10 100 1020.2
20181113144709 43 5 5.0 11.0 0.00 0.66 0.10 100 1020.3
20181113144054 43 360 2.0 10.0 0.01 0.66 0.10 100 1020.5
20181113143554 43 13 6.0 13.0 0.01 0.66 0.10 100 1020.5
20181113143220 43 344 4.0 13.0 0.01 0.66 0.10 100 1020.1
20181113142552 43 340 1.0 9.0 0.01 0.66 0.10 100 1020.0
20181113142052 43 9 0.0 0.0 0.02 0.66 0.10 100 1020.5
20181113141644 43 10 0.0 0.0 0.02 0.66 0.10 100 1020.3
20181113141051 43 19 0.0 0.0 0.02 0.66 0.10 100 1020.5
20181113140551 43 17 0.0 0.0 0.02 0.66 0.10 100 1020.9
20181113140107 43 334 0.0 0.0 0.02 0.66 0.10 100 1020.5
20181113135549 43 27 0.0 4.0 0.02 0.66 0.10 100 1020.5
20181113135050 43 32 0.0 4.0 0.02 0.66 0.10 100 1020.6
20181113134633 43 24 0.0 0.0 0.02 0.66 0.10 100 1020.3
20181113134049 43 346 0.0 8.0 0.01 0.65 0.09 100 1020.4
20181113133548 43 360 0.0 8.0 0.01 0.65 0.09 100 1020.1
20181113133152 43 355 0.0 9.0 0.01 0.65 0.09 100 1019.7
20181113132549 43 20 1.0 9.0 0.01 0.65 0.09 100 1019.9
20181113132047 43 13 0.0 7.0 0.00 0.64 0.08 100 1019.8
20181113131631 43 348 1.0 9.0 0.00 0.64 0.08 100 1020.0
20181113131045 43 22 3.0 12.0 0.00 0.64 0.08 100 1019.7
20181113130545 43 19 3.0 12.0 0.00 0.64 0.08 100 1019.4
20181113130234 43 360 4.0 9.0 0.00 0.64 0.08 100 1019.0
20181113125543 43 21 3.0 9.0 0.00 0.64 0.08 100 1019.4
20181113125041 43 346 3.0 8.0 0.00 0.64 0.08 100 1019.3
20181113124807 43 355 1.0 8.0 0.00 0.64 0.08 100 1019.3
20181113124040 43 19 0.0 7.0 0.00 0.64 0.08 100 1019.2
20181113123540 43 5 2.0 8.0 0.00 0.64 0.08 100 1019.2
20181113123052 43 22 2.0 9.0 0.00 0.64 0.08 100 1019.1
20181113122538 43 348 1.0 8.0 0.00 0.64 0.08 100 1019.0
20181113122040 43 38 1.0 10.0 0.00 0.64 0.08 100 1018.9
20181113121625 43 317 0.0 12.0 0.00 0.64 0.08 100 1018.7
20181113121035 43 16 2.0 10.0 0.00 0.64 0.08 100 1018.2
20181113120534 43 340 5.0 10.0 0.00 0.64 0.08 100 1017.9
20181113120126 44 34 0.0 10.0 0.00 0.65 0.08 100 1018.2
20181113115532 44 279 1.0 11.0 0.00 0.65 0.08 100 1018.1
20181113115032 44 28 0.0 9.0 0.00 0.65 0.08 100 1018.0
20181113114638 44 250 0.0 8.0 0.00 0.65 0.08 100 1018.2
20181113114032 44 332 1.0 9.0 0.00 0.65 0.08 100 1018.1
20181113113534 44 320 2.0 9.0 0.00 0.65 0.08 100 1018.1
20181113113052 44 360 1.0 11.0 0.00 0.65 0.08 100 1017.9
20181113112532 44 26 1.0 11.0 0.00 0.65 0.08 100 1017.8
20181113112029 44 360 1.0 11.0 0.00 0.65 0.08 100 1017.8
20181113111541 44 14 2.0 11.0 0.00 0.65 0.08 100 1017.8
20181113111027 44 115 4.0 13.0 0.00 0.65 0.08 100 1017.9
20181113110526 45 21 6.0 13.0 0.00 0.65 0.08 100 1018.0
20181113110043 45 309 3.0 12.0 0.00 0.79 0.08 100 1018.1
20181113105526 45 17 3.0 8.0 0.00 0.79 0.08 100 1018.1
20181113105024 45 32 0.0 7.0 0.01 0.79 0.08 100 1018.1
20181113104529 46 53 0.0 9.0 0.01 0.79 0.08 100 1017.8
20181113104023 46 19 0.0 10.0 0.01 0.79 0.08 100 1017.7
20181113103521 46 291 5.0 11.0 0.02 0.79 0.08 100 1017.8
20181113103037 46 26 2.0 11.0 0.02 0.79 0.08 100 1017.9
20181113102519 46 311 0.0 9.0 0.02 0.79 0.08 100 1017.8
20181113102018 47 355 0.0 8.0 0.02 0.79 0.08 100 1017.4
20181113101602 47 338 0.0 4.0 0.03 0.79 0.08 100 1017.0
20181113101017 47 15 0.0 5.0 0.04 0.79 0.08 100 1016.8
20181113100519 47 18 1.0 5.0 0.04 0.79 0.08 100 1016.8
20181113100125 47 355 0.0 4.0 0.04 0.80 0.08 100 1017.1
20181113095513 47 288 0.0 4.0 0.04 0.80 0.08 100 1016.9
20181113095013 48 360 0.0 5.0 0.04 0.79 0.07 100 1016.8
20181113094549 48 5 0.0 5.0 0.04 0.79 0.07 100 1016.8
20181113094014 48 67 0.0 5.0 0.04 0.79 0.07 100 1016.8
20181113093511 48 5 0.0 5.0 0.03 0.78 0.06 100 1016.6
20181113093014 49 14 1.0 5.0 0.03 0.78 0.06 100 1016.7
20181113092509 49 15 0.0 4.0 0.04 0.78 0.06 100 1016.7
20181113092009 49 317 0.0 5.0 0.04 0.78 0.06 100 1016.7
20181113091541 50 186 0.0 5.0 0.04 0.77 0.05 100 1016.7
20181113091009 50 67 0.0 5.0 0.03 0.76 0.04 100 1016.8
20181113090505 50 330 0.0 5.0 0.03 0.76 0.04 100 1016.8
20181113090022 51 21 0.0 5.0 0.03 0.76 0.04 100 1016.8
20181113085506 51 37 0.0 7.0 0.03 0.76 0.04 100 1016.8
20181113085002 52 294 0.0 7.0 0.02 0.75 0.03 100 1016.7
20181113084502 53 215 0.0 7.0 0.02 0.75 0.03 100 1016.3
20181113084100 53 67 0.0 4.0 0.02 0.75 0.03 100 1016.1
20181113083601 53 30 0.0 1.0 0.02 0.75 0.03 100 1015.7
20181113083306 53 26 0.0 0.0 0.02 0.75 0.03 100 1015.8
20181113082558 53 27 0.0 5.0 0.01 0.74 0.02 100 1015.7
20181113082059 53 329 0.0 5.0 0.01 0.74 0.02 100 1015.8
20181113081657 53 360 0.0 4.0 0.00 0.73 0.01 100 1015.8
20181113081100 53 342 0.0 4.0 0.00 0.73 0.01 100 1015.8
20181113080556 53 311 0.0 5.0 0.00 0.73 0.01 100 1015.5
20181113080220 53 5 1.0 5.0 0.00 0.73 0.01 100 1015.3
20181113075555 53 12 0.0 5.0 0.00 0.73 0.01 100 1014.9
20181113075053 53 350 0.0 0.0 0.00 0.73 0.01 100 1015.0
20181113074800 53 347 0.0 2.0 0.00 0.73 0.01 100 1015.1
20181113074054 53 355 0.0 3.0 0.00 0.73 0.01 100 1015.2
20181113073555 53 360 0.0 0.0 0.00 0.73 0.01 100 1015.0
20181113073122 53 360 0.0 4.0 0.00 0.73 0.01 100 1014.9
20181113072553 53 5 0.0 1.0 0.00 0.73 0.01 100 1014.8
20181113072052 53 5 0.0 2.0 0.00 0.73 0.01 100 1014.8
20181113071656 53 5 0.0 2.0 0.00 0.73 0.01 100 1014.7
20181113070552 54 342 0.0 0.0 0.01 0.73 0.01 100 1015.0
20181113070126 54 338 0.0 0.0 0.01 0.73 0.01 100 1015.1
20181113065552 54 342 0.0 0.0 0.01 0.73 0.01 100 1015.2
20181113065051 54 310 0.0 0.0 0.01 0.73 0.01 100 1015.1
20181113064711 54 308 0.0 0.0 0.01 0.73 0.01 100 1015.0
20181113064049 54 308 0.0 0.0 0.01 0.73 0.01 100 1014.9
20181113063549 54 308 0.0 0.0 0.01 0.73 0.01 100 1014.8
20181113063200 54 308 0.0 0.0 0.02 0.73 0.01 100 1014.9
20181113062548 54 308 0.0 0.0 0.02 0.73 0.01 100 1014.9
20181113062048 54 308 0.0 0.0 0.02 0.73 0.01 100 1014.8
20181113061705 54 308 0.0 0.0 0.02 0.73 0.01 100 1014.8
20181113061047 54 308 0.0 0.0 0.01 0.72 0.00 100 1014.7
20181113060546 54 308 0.0 0.0 0.02 0.72 0.00 100 1014.7
20181113060120 54 307 0.0 0.0 0.02 0.72 0.72 100 1014.8
20181113055546 54 34 0.0 0.0 0.02 0.72 0.72 100 1014.7
20181113055045 54 34 0.0 0.0 0.03 0.72 0.72 100 1014.6
20181113054732 54 34 0.0 0.0 0.04 0.72 0.72 100 1014.6
20181113054046 54 34 0.0 0.0 0.04 0.72 0.72 100 1014.6
20181113053545 54 34 0.0 0.0 0.03 0.71 0.71 100 1014.6
20181113053159 54 34 0.0 0.0 0.03 0.71 0.71 100 1014.8
20181113052546 54 34 0.0 0.0 0.03 0.71 0.71 100 1014.8
20181113052045 54 34 0.0 0.0 0.04 0.71 0.71 100 1015.1
20181113051559 54 34 0.0 0.0 0.04 0.71 0.71 100 1015.0
20181113051044 54 34 0.0 0.0 0.04 0.71 0.71 100 1014.5
20181113050543 54 34 0.0 0.0 0.03 0.70 0.70 100 1014.6
20181113050117 54 40 0.0 0.0 0.03 0.70 0.70 100 1014.3
20181113045543 54 43 0.0 3.0 0.03 0.70 0.70 100 1014.7
20181113045043 54 42 0.0 9.0 0.03 0.69 0.69 100 1014.4
20181113044608 54 348 2.0 9.0 0.02 0.68 0.68 100 1013.9
20181113044045 54 360 3.0 7.0 0.02 0.68 0.68 100 1013.9
20181113043543 54 350 1.0 6.0 0.02 0.68 0.68 100 1014.1
20181113043115 54 11 0.0 4.0 0.02 0.68 0.68 100 1014.4
20181113042545 55 5 0.0 5.0 0.02 0.68 0.68 100 1014.6
20181113042042 55 336 0.0 5.0 0.02 0.67 0.67 100 1014.8
20181113041617 55 5 0.0 3.0 0.02 0.67 0.67 100 1015.0
20181113041043 55 30 0.0 2.0 0.02 0.67 0.67 100 1014.8
20181113040546 55 320 0.0 0.0 0.02 0.67 0.67 100 1014.9
20181113040154 55 348 0.0 5.0 0.03 0.67 0.67 100 1014.8
20181113035544 55 336 0.0 5.0 0.03 0.67 0.67 100 1014.7
20181113035045 55 348 0.0 2.0 0.02 0.66 0.66 100 1014.6
20181113034609 55 355 0.0 3.0 0.02 0.66 0.66 100 1014.7
20181113034044 55 350 0.0 4.0 0.02 0.66 0.66 100 1014.6
20181113033541 55 355 0.0 4.0 0.02 0.66 0.66 100 1014.6
20181113033120 55 355 0.0 0.0 0.02 0.66 0.66 100 1014.5
20181113032541 55 5 0.0 0.0 0.02 0.66 0.66 100 1014.7
20181113032041 55 348 0.0 0.0 0.01 0.65 0.65 100 1014.9
20181113031557 55 320 0.0 0.0 0.01 0.65 0.65 100 1015.0
20181113031040 55 318 0.0 0.0 0.01 0.65 0.65 100 1014.9
20181113030540 55 22 0.0 0.0 0.01 0.65 0.65 100 1014.7
20181113030128 55 22 0.0 0.0 0.00 0.64 0.64 100 1014.7
20181113025541 55 22 0.0 0.0 0.00 0.64 0.64 100 1014.8
20181113025041 55 22 0.0 0.0 0.00 0.64 0.64 100 1014.7
20181113024558 55 355 0.0 0.0 0.00 0.64 0.64 100 1014.4
20181113024040 55 355 0.0 0.0 0.00 0.64 0.64 100 1014.2
20181113023540 55 355 0.0 0.0 0.00 0.64 0.64 100 1014.0
20181113023147 55 355 0.0 0.0 0.00 0.64 0.64 100 1014.0
20181113022540 55 355 0.0 0.0 0.00 0.64 0.64 100 1014.0
20181113022042 55 355 0.0 0.0 0.00 0.64 0.64 100 1013.9
20181113021610 56 343 0.0 0.0 0.00 0.64 0.64 100 1014.1
20181113021039 56 343 0.0 0.0 0.00 0.64 0.64 100 1013.7
20181113020539 56 343 0.0 0.0 0.00 0.64 0.64 100 1014.3
20181113020106 56 343 0.0 0.0 0.00 0.64 0.64 100 1013.9
20181113015538 56 343 0.0 0.0 0.00 0.64 0.64 100 1013.6
20181113015038 56 343 0.0 0.0 0.00 0.64 0.64 100 1013.4
20181113014556 56 314 0.0 0.0 0.00 0.64 0.64 100 1013.1
20181113014039 56 5 0.0 0.0 0.00 0.64 0.64 100 1012.9
20181113013538 56 36 0.0 0.0 0.00 0.64 0.64 100 1013.1
20181113013101 56 318 0.0 0.0 0.00 0.64 0.64 100 1013.1
20181113012538 56 5 0.0 0.0 0.00 0.64 0.64 100 1013.1